,,PA_Meas_PMT16A,,PR_Meas_QMR101_102,,RH_Meas_QMH101,,SR_Meas_QMS101,,TA_Meas_QMH101,,GenWind,,GenWind,
time,status,PA,status,PR,status,RH,status,SR,status,TA,status,DirAvg,status,SpdAvg,
2013-08-05, 08:42:04,VALID,920.075,VALID,0,VALID,94.9954,VALID,140.748,VALID,18.572,VALID,10,VALID,0,
2013-08-05, 08:43:04,VALID,920.093,VALID,0,VALID,95.0564,VALID,145.368,VALID,18.533,VALID,17,VALID,0,
2013-08-05, 08:44:04,VALID,920.127,VALID,0,VALID,95.2241,VALID,147.624,VALID,18.5929,VALID,7,VALID,0,
2013-08-05, 08:45:04,VALID,920.068,VALID,0,VALID,94.8963,VALID,147.732,VALID,18.5539,VALID,55,VALID,0,
2013-08-05, 08:46:04,VALID,919.983,VALID,0,VALID,94.7514,VALID,147.302,VALID,18.5149,VALID,58,VALID,0,
2013-08-05, 08:47:04,VALID,920.044,VALID,0,VALID,94.3626,VALID,147.194,VALID,18.4745,VALID,43,VALID,0,
2013-08-05, 08:48:04,VALID,920.055,VALID,0,VALID,94.6371,VALID,146.872,VALID,18.5344,VALID,41,VALID,0,
2013-08-05, 08:49:04,VALID,920.056,VALID,0,VALID,94.3703,VALID,145.905,VALID,18.5525,VALID,17,VALID,0,
2013-08-05, 08:50:04,VALID,920.073,VALID,0,VALID,93.9281,VALID,146.227,VALID,18.5149,VALID,42,VALID,0,
2013-08-05, 08:51:04,VALID,920.036,VALID,0,VALID,94.1797,VALID,149.236,VALID,18.5525,VALID,41,VALID,0,
2013-08-05, 08:52:04,VALID,920.071,VALID,0,VALID,94.3474,VALID,154.393,VALID,18.6304,VALID,21,VALID,0,
2013-08-05, 08:53:04,VALID,920.093,VALID,0,VALID,94.233,VALID,159.765,VALID,18.7098,VALID,11,VALID,0,
2013-08-05, 08:54:04,VALID,920.164,VALID,0,VALID,94.2712,VALID,164.063,VALID,18.7864,VALID,11,VALID,0,
2013-08-05, 08:55:04,VALID,920.067,VALID,0,VALID,94.0272,VALID,167.393,VALID,18.7878,VALID,11,VALID,0,
2013-08-05, 08:56:04,VALID,920.003,VALID,0,VALID,94.3017,VALID,171.584,VALID,18.8449,VALID,11,VALID,0,
2013-08-05, 08:57:04,VALID,920.13,VALID,0,VALID,93.9967,VALID,175.451,VALID,18.9034,VALID,9,VALID,0,
2013-08-05, 08:58:04,VALID,920.167,VALID,0,VALID,94.012,VALID,178.03,VALID,18.9633,VALID,16,VALID,0,
2013-08-05, 08:59:04,VALID,920.158,VALID,0,VALID,93.4783,VALID,180.071,VALID,18.9424,VALID,16,VALID,0,
2013-08-05, 09:00:04,VALID,920.151,VALID,0,VALID,93.1429,VALID,182.65,VALID,18.9828,VALID,16,VALID,0,
2013-08-05, 09:01:04,VALID,920.117,VALID,0,VALID,93.0133,VALID,185.551,VALID,19.0203,VALID,16,VALID,0,
2013-08-05, 09:02:04,VALID,920.143,VALID,0,VALID,92.5559,VALID,188.559,VALID,19.0803,VALID,16,VALID,0,
2013-08-05, 09:03:04,VALID,920.162,VALID,0,VALID,91.7326,VALID,192.212,VALID,19.0998,VALID,16,VALID,0,
2013-08-05, 09:04:04,VALID,920.17,VALID,0,VALID,91.1761,VALID,196.617,VALID,19.1568,VALID,15,VALID,0,
2013-08-05, 09:05:04,VALID,920.123,VALID,0,VALID,90.3908,VALID,199.088,VALID,19.1958,VALID,15,VALID,0,
2013-08-05, 09:06:04,VALID,920.088,VALID,0,VALID,89.7276,VALID,201.022,VALID,19.2348,VALID,16,VALID,0,
2013-08-05, 09:07:04,VALID,920.102,VALID,0,VALID,88.1572,VALID,202.419,VALID,19.2738,VALID,16,VALID,0,
2013-08-05, 09:08:04,VALID,920.187,VALID,0,VALID,88.95,VALID,203.171,VALID,19.3713,VALID,16,VALID,0,
2013-08-05, 09:09:04,VALID,920.091,VALID,0,VALID,90.5052,VALID,204.031,VALID,19.4688,VALID,34,VALID,0,
2013-08-05, 09:10:04,VALID,920.044,VALID,0,VALID,91.4886,VALID,206.502,VALID,19.5483,VALID,34,VALID,0,
2013-08-05, 09:11:04,VALID,920.075,VALID,0,VALID,91.9765,VALID,209.403,VALID,19.5663,VALID,34,VALID,0,
2013-08-05, 09:12:04,VALID,920.055,VALID,0,VALID,91.4962,VALID,213.378,VALID,19.5468,VALID,41,VALID,0,
2013-08-05, 09:13:04,VALID,920.152,VALID,0,VALID,90.7644,VALID,217.246,VALID,19.4688,VALID,114,VALID,0,
2013-08-05, 09:14:04,VALID,920.118,VALID,0,VALID,90.6958,VALID,220.039,VALID,19.4283,VALID,114,VALID,0,
2013-08-05, 09:15:04,VALID,920.046,VALID,0,VALID,90.7949,VALID,221.759,VALID,19.4478,VALID,114,VALID,0,
2013-08-05, 09:16:04,VALID,920.112,VALID,0,VALID,91.2218,VALID,221.866,VALID,19.5273,VALID,114,VALID,0,
2013-08-05, 09:17:04,VALID,920.105,VALID,0,VALID,91.4581,VALID,220.684,VALID,19.5858,VALID,114,VALID,0,
2013-08-05, 09:18:04,VALID,920.052,VALID,0,VALID,91.7631,VALID,220.254,VALID,19.6833,VALID,111,VALID,0,
2013-08-05, 09:19:04,VALID,920.134,VALID,0,VALID,91.9994,VALID,220.792,VALID,19.7043,VALID,113,VALID,0,
2013-08-05, 09:20:04,VALID,920.044,VALID,0,VALID,92.4644,VALID,224.874,VALID,19.7433,VALID,140,VALID,0,
2013-08-05, 09:21:04,VALID,920.14,VALID,0,VALID,92.1976,VALID,233.362,VALID,19.6653,VALID,180,VALID,0,
2013-08-05, 09:22:04,VALID,920.06,VALID,0,VALID,92.655,VALID,242.817,VALID,19.6638,VALID,150,VALID,0,
2013-08-05, 09:23:04,VALID,920.034,VALID,0,VALID,92.7617,VALID,251.52,VALID,19.6833,VALID,140,VALID,0,
2013-08-05, 09:24:04,VALID,919.992,VALID,0,VALID,93.0514,VALID,256.355,VALID,19.7238,VALID,132,VALID,0,
2013-08-05, 09:25:04,VALID,919.975,VALID,0,VALID,93.0057,VALID,262.264,VALID,19.7628,VALID,159,VALID,0,
2013-08-05, 09:26:04,VALID,919.987,VALID,0,VALID,92.9599,VALID,266.991,VALID,19.7808,VALID,144,VALID,0,
2013-08-05, 09:27:04,VALID,919.957,VALID,0,VALID,92.777,VALID,265.38,VALID,19.8018,VALID,159,VALID,0,
2013-08-05, 09:28:04,VALID,920.014,VALID,0,VALID,92.1366,VALID,263.016,VALID,19.7823,VALID,167,VALID,0,
2013-08-05, 09:29:04,VALID,919.977,VALID,0,VALID,92.0832,VALID,261.942,VALID,19.8003,VALID,157,VALID,0,
2013-08-05, 09:30:04,VALID,919.947,VALID,0,VALID,92.0832,VALID,260.33,VALID,19.8603,VALID,161,VALID,0,
2013-08-05, 09:31:04,VALID,919.928,VALID,0,VALID,92.3729,VALID,260.76,VALID,19.9173,VALID,159,VALID,0,
2013-08-05, 09:32:04,VALID,919.95,VALID,0,VALID,92.5788,VALID,261.404,VALID,20.0343,VALID,156,VALID,0,
2013-08-05, 09:33:04,VALID,919.862,VALID,0,VALID,91.3819,VALID,262.049,VALID,20.0163,VALID,147,VALID,0,
2013-08-05, 09:34:04,VALID,919.808,VALID,0,VALID,91.5267,VALID,263.553,VALID,20.0538,VALID,141,VALID,0,
2013-08-05, 09:35:04,VALID,919.875,VALID,0,VALID,92.5559,VALID,265.809,VALID,20.1903,VALID,88,VALID,0,
2013-08-05, 09:36:04,VALID,919.926,VALID,0,VALID,91.6258,VALID,268.925,VALID,20.2098,VALID,66,VALID,0,
2013-08-05, 09:37:04,VALID,919.893,VALID,0,VALID,90.4366,VALID,272.686,VALID,20.1123,VALID,132,VALID,0,
2013-08-05, 09:38:04,VALID,919.864,VALID,0,VALID,90.0402,VALID,276.124,VALID,20.0343,VALID,102,VALID,0,
2013-08-05, 09:39:04,VALID,919.89,VALID,0,VALID,89.1025,VALID,278.38,VALID,19.8588,VALID,103,VALID,0,
2013-08-05, 09:40:04,VALID,919.903,VALID,0,VALID,90.9931,VALID,279.562,VALID,19.8783,VALID,85,VALID,0,
2013-08-05, 09:41:04,VALID,919.864,VALID,0,VALID,91.1608,VALID,280.314,VALID,19.9173,VALID,108,VALID,0,
2013-08-05, 09:42:04,VALID,919.887,VALID,0,VALID,90.6577,VALID,281.496,VALID,19.9563,VALID,115,VALID,0,
2013-08-05, 09:43:04,VALID,919.919,VALID,0,VALID,91.2752,VALID,283.752,VALID,20.0343,VALID,150,VALID,0,
2013-08-05, 09:44:04,VALID,919.925,VALID,0,VALID,91.6487,VALID,286.76,VALID,20.1123,VALID,184,VALID,0,
2013-08-05, 09:45:04,VALID,920.034,VALID,0,VALID,90.5586,VALID,291.273,VALID,20.0928,VALID,185,VALID,0,
2013-08-05, 09:46:04,VALID,919.979,VALID,0,VALID,90.2612,VALID,297.29,VALID,20.1123,VALID,171,VALID,0,
2013-08-05, 09:47:04,VALID,919.919,VALID,0,VALID,90.4976,VALID,299.009,VALID,20.1513,VALID,150,VALID,0,
2013-08-05, 09:48:04,VALID,919.946,VALID,0,VALID,90.063,VALID,299.653,VALID,20.1513,VALID,176,VALID,0,
2013-08-05, 09:49:04,VALID,920,VALID,0,VALID,89.3388,VALID,297.075,VALID,20.0538,VALID,173,VALID,0,
2013-08-05, 09:50:04,VALID,920.054,VALID,0,VALID,90.4442,VALID,292.347,VALID,20.0733,VALID,175,VALID,0,
2013-08-05, 09:51:04,VALID,919.953,VALID,0,VALID,89.6209,VALID,289.339,VALID,20.0343,VALID,147,VALID,0,
2013-08-05, 09:52:04,VALID,920.041,VALID,0,VALID,90.1545,VALID,290.306,VALID,20.0343,VALID,130,VALID,0,
2013-08-05, 09:53:04,VALID,919.878,VALID,0,VALID,90.4595,VALID,293.422,VALID,20.0148,VALID,168,VALID,0,
2013-08-05, 09:54:04,VALID,919.881,VALID,0,VALID,90.2308,VALID,298.794,VALID,20.0148,VALID,162,VALID,0,
2013-08-05, 09:55:04,VALID,919.916,VALID,0,VALID,89.4989,VALID,305.24,VALID,19.9953,VALID,155,VALID,0,
2013-08-05, 09:56:04,VALID,919.939,VALID,0,VALID,88.9576,VALID,311.794,VALID,19.9758,VALID,173,VALID,0,
2013-08-05, 09:57:04,VALID,919.886,VALID,0,VALID,89.0949,VALID,316.737,VALID,19.9953,VALID,164,VALID,0,
2013-08-05, 09:58:04,VALID,919.857,VALID,0,VALID,89.1177,VALID,316.737,VALID,20.0343,VALID,140,VALID,0,
2013-08-05, 09:59:04,VALID,919.878,VALID,0,VALID,89.4532,VALID,314.373,VALID,20.0733,VALID,160,VALID,0,
2013-08-05, 10:00:04,VALID,919.823,VALID,0,VALID,89.3007,VALID,314.265,VALID,20.1318,VALID,165,VALID,0,
2013-08-05, 10:01:04,VALID,919.92,VALID,0,VALID,88.9348,VALID,318.456,VALID,20.1693,VALID,164,VALID,0,
2013-08-05, 10:02:04,VALID,919.871,VALID,0,VALID,88.8814,VALID,325.117,VALID,20.2293,VALID,166,VALID,0,
2013-08-05, 10:03:04,VALID,919.884,VALID,0,VALID,88.6298,VALID,339.407,VALID,20.3058,VALID,177,VALID,0,
2013-08-05, 10:04:04,VALID,919.883,VALID,0,VALID,88.4774,VALID,355.738,VALID,20.3838,VALID,187,VALID,0,
2013-08-05, 10:05:04,VALID,919.893,VALID,0,VALID,87.1661,VALID,355.308,VALID,20.4423,VALID,191,VALID,0,
2013-08-05, 10:06:04,VALID,919.831,VALID,0,VALID,86.8307,VALID,345.423,VALID,20.5024,VALID,203,VALID,0,
2013-08-05, 10:07:04,VALID,919.831,VALID,0,VALID,87.654,VALID,341.663,VALID,20.5999,VALID,185,VALID,0,
2013-08-05, 10:08:04,VALID,919.88,VALID,0,VALID,85.489,VALID,341.555,VALID,20.5984,VALID,197,VALID,0,
2013-08-05, 10:09:04,VALID,919.862,VALID,0,VALID,85.4814,VALID,343.704,VALID,20.6585,VALID,210,VALID,0,
2013-08-05, 10:10:04,VALID,919.885,VALID,0,VALID,85.7482,VALID,346.39,VALID,20.7365,VALID,196,VALID,0,
2013-08-05, 10:11:04,VALID,919.822,VALID,0,VALID,83.9338,VALID,352.407,VALID,20.795,VALID,199,VALID,0,
2013-08-05, 10:12:04,VALID,919.842,VALID,0,VALID,84.1625,VALID,356.167,VALID,20.8519,VALID,168,VALID,0,
2013-08-05, 10:13:04,VALID,919.876,VALID,0,VALID,81.8374,VALID,358.961,VALID,20.7544,VALID,167,VALID,0,
2013-08-05, 10:14:04,VALID,919.807,VALID,0,VALID,82.6607,VALID,362.721,VALID,20.7154,VALID,167,VALID,0,
2013-08-05, 10:15:04,VALID,919.843,VALID,0,VALID,82.3481,VALID,366.267,VALID,20.6569,VALID,167,VALID,0,
2013-08-05, 10:16:04,VALID,919.836,VALID,0,VALID,80.9226,VALID,370.35,VALID,20.6179,VALID,146,VALID,0,
2013-08-05, 10:17:04,VALID,919.89,VALID,0,VALID,81.9288,VALID,376.474,VALID,20.6374,VALID,146,VALID,0,
2013-08-05, 10:18:04,VALID,919.759,VALID,0,VALID,83.6289,VALID,385.177,VALID,20.7544,VALID,146,VALID,0,
2013-08-05, 10:19:04,VALID,919.727,VALID,0,VALID,84.0177,VALID,393.987,VALID,20.8714,VALID,146,VALID,0,
2013-08-05, 10:20:04,VALID,919.791,VALID,0,VALID,83.4612,VALID,394.846,VALID,20.9495,VALID,146,VALID,0,
2013-08-05, 10:21:04,VALID,919.785,VALID,0,VALID,82.6455,VALID,396.458,VALID,21.047,VALID,167,VALID,0,
2013-08-05, 10:22:04,VALID,919.778,VALID,0,VALID,82.3481,VALID,393.449,VALID,21.086,VALID,171,VALID,0,
2013-08-05, 10:23:04,VALID,919.793,VALID,0,VALID,81.6163,VALID,388.722,VALID,21.1624,VALID,171,VALID,0,
2013-08-05, 10:24:04,VALID,919.786,VALID,0,VALID,79.4894,VALID,382.813,VALID,21.1836,VALID,222,VALID,0,
2013-08-05, 10:25:04,VALID,919.734,VALID,0,VALID,81.4028,VALID,376.689,VALID,21.2015,VALID,235,VALID,0,
2013-08-05, 10:26:04,VALID,919.821,VALID,0,VALID,80.8844,VALID,372.498,VALID,21.2616,VALID,233,VALID,0,
2013-08-05, 10:27:04,VALID,919.753,VALID,0,VALID,81.723,VALID,371.746,VALID,21.3591,VALID,183,VALID,0,
2013-08-05, 10:28:04,VALID,919.717,VALID,0,VALID,79.375,VALID,373.358,VALID,21.3591,VALID,200,VALID,0,
2013-08-05, 10:29:04,VALID,919.705,VALID,0,VALID,79.192,VALID,378.515,VALID,21.4177,VALID,180,VALID,0,
2013-08-05, 10:30:04,VALID,919.786,VALID,0,VALID,78.7346,VALID,384.317,VALID,21.3965,VALID,190,VALID,0,
2013-08-05, 10:31:04,VALID,919.78,VALID,0,VALID,79.0853,VALID,387.755,VALID,21.5542,VALID,190,VALID,0,
2013-08-05, 10:32:04,VALID,919.668,VALID,0,VALID,78.9328,VALID,391.408,VALID,21.6323,VALID,193,VALID,0,
2013-08-05, 10:33:04,VALID,919.712,VALID,0,VALID,76.9813,VALID,404.946,VALID,21.6518,VALID,189,VALID,0,
2013-08-05, 10:34:04,VALID,919.688,VALID,0,VALID,80.7243,VALID,422.244,VALID,21.6696,VALID,155,VALID,0,
2013-08-05, 10:35:04,VALID,919.639,VALID,0,VALID,81.0369,VALID,435.889,VALID,21.6908,VALID,88,VALID,0,
2013-08-05, 10:36:04,VALID,919.689,VALID,0,VALID,79.2454,VALID,456.732,VALID,21.5526,VALID,137,VALID,0,
2013-08-05, 10:37:04,VALID,919.668,VALID,0,VALID,80.5871,VALID,473.386,VALID,21.5347,VALID,152,VALID,0,
2013-08-05, 10:38:04,VALID,919.726,VALID,0,VALID,79.6876,VALID,493.8,VALID,21.4941,VALID,126,VALID,0,
2013-08-05, 10:39:04,VALID,919.578,VALID,0,VALID,80.6329,VALID,510.023,VALID,21.5932,VALID,128,VALID,0,
2013-08-05, 10:40:04,VALID,919.574,VALID,0,VALID,78.666,VALID,511.098,VALID,21.7298,VALID,172,VALID,0,
2013-08-05, 10:41:04,VALID,919.63,VALID,0,VALID,79.1692,VALID,514.536,VALID,21.7477,VALID,158,VALID,0,
2013-08-05, 10:42:04,VALID,919.558,VALID,0,VALID,77.6902,VALID,521.412,VALID,21.8664,VALID,231,VALID,0,
2013-08-05, 10:43:04,VALID,919.495,VALID,0,VALID,78.6813,VALID,552.892,VALID,22.0013,VALID,230,VALID,0,
2013-08-05, 10:44:04,VALID,919.469,VALID,0,VALID,77.9113,VALID,540.966,VALID,22.1379,VALID,120,VALID,0,
2013-08-05, 10:45:04,VALID,919.459,VALID,0,VALID,76.9126,VALID,515.288,VALID,22.294,VALID,142,VALID,0,
2013-08-05, 10:46:04,VALID,919.486,VALID,0,VALID,72.7198,VALID,517.007,VALID,22.333,VALID,189,VALID,0,
2013-08-05, 10:47:04,VALID,919.486,VALID,0,VALID,71.9498,VALID,557.297,VALID,22.3135,VALID,181,VALID,0,
2013-08-05, 10:48:04,VALID,919.428,VALID,0,VALID,73.566,VALID,512.172,VALID,22.3525,VALID,166,VALID,0,
2013-08-05, 10:49:04,VALID,919.44,VALID,0,VALID,73.2,VALID,509.701,VALID,22.4696,VALID,156,VALID,0,
2013-08-05, 10:50:04,VALID,919.348,VALID,0,VALID,73.8938,VALID,527.966,VALID,22.5867,VALID,150,VALID,0,
2013-08-05, 10:51:04,VALID,919.458,VALID,0,VALID,73.1543,VALID,509.701,VALID,22.8209,VALID,166,VALID,0,
2013-08-05, 10:52:04,VALID,919.384,VALID,0,VALID,72.9103,VALID,493.585,VALID,22.9397,VALID,187,VALID,0,
2013-08-05, 10:53:04,VALID,919.39,VALID,0,VALID,72.4529,VALID,502.932,VALID,23.0373,VALID,117,VALID,0,
2013-08-05, 10:54:04,VALID,919.417,VALID,0,VALID,71.8431,VALID,495.196,VALID,22.9787,VALID,132,VALID,0,
2013-08-05, 10:55:04,VALID,919.426,VALID,0,VALID,72.4072,VALID,462.534,VALID,22.9787,VALID,131,VALID,0,
2013-08-05, 10:56:04,VALID,919.318,VALID,0,VALID,72.979,VALID,446.203,VALID,23.0373,VALID,123,VALID,0,
2013-08-05, 10:57:04,VALID,919.245,VALID,0,VALID,74.7552,VALID,420.095,VALID,23.0356,VALID,106,VALID,0,
2013-08-05, 10:58:04,VALID,919.319,VALID,0,VALID,72.7045,VALID,409.028,VALID,23.016,VALID,106,VALID,0,
2013-08-05, 10:59:04,VALID,919.334,VALID,0,VALID,72.9332,VALID,392.912,VALID,23.0551,VALID,106,VALID,0,
2013-08-05, 11:00:04,VALID,919.274,VALID,0,VALID,71.9041,VALID,385.929,VALID,23.1917,VALID,106,VALID,0,
2013-08-05, 11:01:04,VALID,919.259,VALID,0,VALID,71.622,VALID,377.118,VALID,23.2893,VALID,106,VALID,0,
2013-08-05, 11:02:04,VALID,919.244,VALID,0,VALID,71.2942,VALID,367.449,VALID,23.4259,VALID,106,VALID,0,
2013-08-05, 11:03:04,VALID,919.196,VALID,0,VALID,70.8063,VALID,361.754,VALID,23.504,VALID,106,VALID,0,
2013-08-05, 11:04:04,VALID,919.168,VALID,0,VALID,71.5229,VALID,369.92,VALID,23.6211,VALID,106,VALID,0,
2013-08-05, 11:05:04,VALID,919.035,VALID,0,VALID,71.622,VALID,373.358,VALID,23.7578,VALID,23,VALID,0,
2013-08-05, 11:06:04,VALID,919.079,VALID,0,VALID,69.4493,VALID,374.11,VALID,23.756,VALID,309,VALID,0,
2013-08-05, 11:07:04,VALID,919.111,VALID,0,VALID,70.1507,VALID,362.077,VALID,23.6388,VALID,307,VALID,0,
2013-08-05, 11:08:04,VALID,919.089,VALID,0,VALID,73.4516,VALID,364.225,VALID,23.543,VALID,307,VALID,0,
2013-08-05, 11:09:04,VALID,919.001,VALID,0,VALID,72.4301,VALID,361.432,VALID,23.543,VALID,349,VALID,0,
2013-08-05, 11:10:04,VALID,919.029,VALID,0,VALID,70.6919,VALID,364.333,VALID,23.4845,VALID,349,VALID,0,
2013-08-05, 11:11:04,VALID,918.979,VALID,0,VALID,69.4493,VALID,363.581,VALID,23.4454,VALID,349,VALID,0,
2013-08-05, 11:12:04,VALID,918.978,VALID,0,VALID,70.3031,VALID,359.606,VALID,23.4454,VALID,349,VALID,0,
2013-08-05, 11:13:04,VALID,918.95,VALID,0,VALID,72.6969,VALID,360.68,VALID,23.4632,VALID,354,VALID,0,
2013-08-05, 11:14:04,VALID,918.944,VALID,0,VALID,74.5951,VALID,364.763,VALID,23.543,VALID,359,VALID,0,
2013-08-05, 11:15:04,VALID,918.937,VALID,0,VALID,74.5646,VALID,369.705,VALID,23.5217,VALID,15,VALID,0,
2013-08-05, 11:16:04,VALID,918.878,VALID,0,VALID,74.2749,VALID,383.565,VALID,23.5626,VALID,15,VALID,0,
2013-08-05, 11:17:04,VALID,918.952,VALID,0,VALID,73.6879,VALID,411.285,VALID,23.504,VALID,16,VALID,0,
2013-08-05, 11:18:04,VALID,918.888,VALID,0,VALID,74.2597,VALID,430.839,VALID,23.4259,VALID,101,VALID,0,
2013-08-05, 11:19:04,VALID,918.726,VALID,0,VALID,75.4108,VALID,453.509,VALID,23.3478,VALID,104,VALID,0,
2013-08-05, 11:20:04,VALID,918.696,VALID,0,VALID,74.0462,VALID,467.476,VALID,23.3674,VALID,104,VALID,0,
2013-08-05, 11:21:04,VALID,918.78,VALID,0,VALID,74.7781,VALID,512.817,VALID,23.3283,VALID,104,VALID,0,
2013-08-05, 11:22:04,VALID,918.776,VALID,0,VALID,75.2889,VALID,482.196,VALID,23.3283,VALID,104,VALID,0,
2013-08-05, 11:23:04,VALID,918.762,VALID,0,VALID,76.9431,VALID,485.204,VALID,23.4259,VALID,104,VALID,0,
2013-08-05, 11:24:04,VALID,918.709,VALID,0,VALID,78.0485,VALID,477.146,VALID,23.465,VALID,104,VALID,0,
2013-08-05, 11:25:04,VALID,918.68,VALID,0,VALID,75.0144,VALID,473.708,VALID,23.4827,VALID,64,VALID,0,
2013-08-05, 11:26:04,VALID,918.702,VALID,0,VALID,75.3117,VALID,481.229,VALID,23.504,VALID,64,VALID,0,
2013-08-05, 11:27:04,VALID,918.653,VALID,0,VALID,73.5507,VALID,508.626,VALID,23.6211,VALID,46,VALID,0,
2013-08-05, 11:28:04,VALID,918.783,VALID,0,VALID,70.6005,VALID,482.303,VALID,23.4827,VALID,31,VALID,0,
2013-08-05, 11:29:04,VALID,918.73,VALID,0,VALID,71.2332,VALID,478.435,VALID,23.4259,VALID,11,VALID,0,
2013-08-05, 11:30:04,VALID,918.745,VALID,0,VALID,71.1951,VALID,490.147,VALID,23.4259,VALID,3,VALID,0,
2013-08-05, 11:31:04,VALID,918.745,VALID,0,VALID,74.2826,VALID,497.023,VALID,23.5235,VALID,33,VALID,0,
2013-08-05, 11:32:04,VALID,918.796,VALID,0,VALID,70.0135,VALID,486.386,VALID,23.6193,VALID,8,VALID,0,
2013-08-05, 11:33:04,VALID,918.712,VALID,0,VALID,70.5318,VALID,484.667,VALID,23.8358,VALID,330,VALID,0,
2013-08-05, 11:34:04,VALID,918.723,VALID,0,VALID,69.1063,VALID,506.907,VALID,23.7382,VALID,275,VALID,0,
2013-08-05, 11:35:04,VALID,918.655,VALID,0,VALID,69.922,VALID,504.221,VALID,23.6016,VALID,274,VALID,0,
2013-08-05, 11:36:04,VALID,918.653,VALID,0,VALID,70.6919,VALID,535.594,VALID,23.6211,VALID,275,VALID,0,
2013-08-05, 11:37:04,VALID,918.54,VALID,0,VALID,71.5153,VALID,506.155,VALID,23.8358,VALID,352,VALID,0,
2013-08-05, 11:38:04,VALID,918.587,VALID,0,VALID,70.3413,VALID,502.287,VALID,24.0292,VALID,352,VALID,0,
2013-08-05, 11:39:04,VALID,918.53,VALID,0,VALID,73.2991,VALID,490.899,VALID,24.0896,VALID,57,VALID,0,
2013-08-05, 11:40:04,VALID,918.604,VALID,0,VALID,75.3346,VALID,494.767,VALID,24.0292,VALID,59,VALID,0,
2013-08-05, 11:41:04,VALID,918.532,VALID,0,VALID,74.0539,VALID,488.535,VALID,24.0878,VALID,58,VALID,0,
2013-08-05, 11:42:04,VALID,918.439,VALID,0,VALID,72.2242,VALID,517.437,VALID,24.0683,VALID,42,VALID,0,
2013-08-05, 11:43:04,VALID,918.578,VALID,0,VALID,72.6054,VALID,494.552,VALID,24.0488,VALID,42,VALID,0,
2013-08-05, 11:44:04,VALID,918.47,VALID,0,VALID,69.9982,VALID,512.709,VALID,23.9902,VALID,277,VALID,0,
2013-08-05, 11:45:04,VALID,918.379,VALID,0,VALID,65.9959,VALID,510.668,VALID,23.8536,VALID,243,VALID,0,
2013-08-05, 11:46:04,VALID,918.494,VALID,0,VALID,68.2906,VALID,510.775,VALID,23.8731,VALID,247,VALID,0,
2013-08-05, 11:47:04,VALID,918.609,VALID,0,VALID,67.0937,VALID,514.428,VALID,23.7968,VALID,241,VALID,0,
2013-08-05, 11:48:04,VALID,918.506,VALID,0,VALID,70.4632,VALID,532.263,VALID,23.7169,VALID,274,VALID,0,
2013-08-05, 11:49:04,VALID,918.457,VALID,0,VALID,69.396,VALID,537.743,VALID,23.834,VALID,303,VALID,0,
2013-08-05, 11:50:04,VALID,918.465,VALID,0,VALID,69.4188,VALID,523.131,VALID,23.9512,VALID,303,VALID,0,
2013-08-05, 11:51:04,VALID,918.507,VALID,0,VALID,66.8802,VALID,527.321,VALID,23.7364,VALID,255,VALID,0,
2013-08-05, 11:52:04,VALID,918.654,VALID,0,VALID,67.7417,VALID,535.057,VALID,23.7382,VALID,255,VALID,0,
2013-08-05, 11:53:04,VALID,918.46,VALID,0,VALID,69.3807,VALID,553.967,VALID,23.8554,VALID,359,VALID,0,
2013-08-05, 11:54:04,VALID,918.51,VALID,0,VALID,68.7022,VALID,585.017,VALID,23.953,VALID,298,VALID,0,
2013-08-05, 11:55:04,VALID,918.462,VALID,0,VALID,69.335,VALID,598.447,VALID,23.9725,VALID,2,VALID,0,
2013-08-05, 11:56:04,VALID,918.653,VALID,0,VALID,69.8915,VALID,553.537,VALID,24.0311,VALID,360,VALID,0,
2013-08-05, 11:57:04,VALID,918.526,VALID,0,VALID,69.2511,VALID,625.845,VALID,24.1677,VALID,282,VALID,0,
2013-08-05, 11:58:04,VALID,918.362,VALID,0,VALID,69.03,VALID,602.315,VALID,24.2654,VALID,351,VALID,0,
2013-08-05, 11:59:04,VALID,918.452,VALID,0,VALID,66.1026,VALID,583.943,VALID,24.4606,VALID,13,VALID,0,
2013-08-05, 12:00:04,VALID,918.381,VALID,0,VALID,70.3565,VALID,559.339,VALID,24.5387,VALID,25,VALID,0,
2013-08-05, 12:01:04,VALID,918.36,VALID,0,VALID,69.0681,VALID,539.247,VALID,24.6168,VALID,337,VALID,0,
2013-08-05, 12:02:04,VALID,918.483,VALID,0,VALID,68.7937,VALID,494.552,VALID,24.6168,VALID,345,VALID,0,
2013-08-05, 12:03:04,VALID,918.232,VALID,0,VALID,64.6161,VALID,581.042,VALID,24.6559,VALID,296,VALID,0,
2013-08-05, 12:04:04,VALID,918.116,VALID,0,VALID,65.447,VALID,576.314,VALID,24.6363,VALID,261,VALID,0,
2013-08-05, 12:05:04,VALID,918.28,VALID,0,VALID,68.5421,VALID,580.182,VALID,24.6363,VALID,322,VALID,0,
2013-08-05, 12:06:04,VALID,918.459,VALID,0,VALID,64.9286,VALID,573.306,VALID,24.6559,VALID,20,VALID,0,
2013-08-05, 12:07:04,VALID,918.342,VALID,0,VALID,67.4977,VALID,578.248,VALID,24.5564,VALID,348,VALID,0,
2013-08-05, 12:08:04,VALID,918.243,VALID,0,VALID,67.2462,VALID,584.695,VALID,24.363,VALID,23,VALID,0,
2013-08-05, 12:09:04,VALID,918.344,VALID,0,VALID,69.1063,VALID,588.455,VALID,24.3416,VALID,30,VALID,0,
2013-08-05, 12:10:04,VALID,918.178,VALID,0,VALID,69.8305,VALID,589.53,VALID,24.5582,VALID,358,VALID,0,
2013-08-05, 12:11:04,VALID,918.208,VALID,0,VALID,68.4659,VALID,627.241,VALID,24.6754,VALID,29,VALID,0,
2013-08-05, 12:12:04,VALID,918.304,VALID,0,VALID,68.9157,VALID,582.438,VALID,24.773,VALID,357,VALID,0,
2013-08-05, 12:13:04,VALID,918.244,VALID,0,VALID,67.0327,VALID,650.664,VALID,24.9097,VALID,355,VALID,0,
2013-08-05, 12:14:04,VALID,918.223,VALID,0,VALID,64.2197,VALID,747.361,VALID,24.9878,VALID,347,VALID,0,
2013-08-05, 12:15:04,VALID,918.195,VALID,0,VALID,63.9223,VALID,758.857,VALID,24.9683,VALID,2,VALID,0,
2013-08-05, 12:16:04,VALID,918.121,VALID,0,VALID,65.0049,VALID,800.759,VALID,25.0074,VALID,340,VALID,0,
2013-08-05, 12:17:04,VALID,918.145,VALID,0,VALID,63.4192,VALID,808.495,VALID,24.9878,VALID,259,VALID,0,
2013-08-05, 12:18:04,VALID,918.132,VALID,0,VALID,61.9021,VALID,866.62,VALID,24.9488,VALID,304,VALID,0,
2013-08-05, 12:19:04,VALID,917.825,VALID,0,VALID,63.6631,VALID,873.819,VALID,24.734,VALID,286,VALID,0,
2013-08-05, 12:20:04,VALID,918.028,VALID,0,VALID,67.7722,VALID,822.892,VALID,24.7144,VALID,28,VALID,0,
2013-08-05, 12:21:04,VALID,917.966,VALID,0,VALID,64.7685,VALID,848.57,VALID,24.8902,VALID,360,VALID,0,
2013-08-05, 12:22:04,VALID,918.03,VALID,0,VALID,64.7076,VALID,459.418,VALID,25.0269,VALID,3,VALID,0,
2013-08-05, 12:23:04,VALID,917.948,VALID,0,VALID,65.1802,VALID,511.42,VALID,25.2612,VALID,11,VALID,0,
2013-08-05, 12:24:04,VALID,917.929,VALID,0,VALID,63.038,VALID,752.733,VALID,25.2417,VALID,297,VALID,0,
2013-08-05, 12:25:04,VALID,917.95,VALID,0,VALID,66.339,VALID,726.625,VALID,25.0269,VALID,348,VALID,0,
2013-08-05, 12:26:04,VALID,917.951,VALID,0,VALID,63.8385,VALID,801.404,VALID,24.9311,VALID,337,VALID,0,
2013-08-05, 12:27:04,VALID,918.141,VALID,0,VALID,68.5498,VALID,788.94,VALID,25.0055,VALID,353,VALID,0,
2013-08-05, 12:28:04,VALID,917.818,VALID,0,VALID,65.8968,VALID,761.006,VALID,25.0269,VALID,22,VALID,0,
2013-08-05, 12:29:04,VALID,917.854,VALID,0,VALID,65.0735,VALID,801.511,VALID,24.9469,VALID,5,VALID,0,